Previsão horária em Junkrowy

Hoje, 21 Junho, Segunda-feira

Tempo Temperatura Precipitação Vento Pressão Humidade
00:00 +21°C° 0 mm 3 m/s 743 mmHg 75%
01:00 +21°C° 0 mm 3 m/s 742 mmHg 75%
02:00 +21°C° 0 mm 3 m/s 742 mmHg 77%
03:00 +20°C° 0 mm 3 m/s 742 mmHg 79%
04:00 +20°C° 0 mm 2 m/s 741 mmHg 81%
05:00 +21°C° 0 mm 3 m/s 742 mmHg 77%
06:00 +24°C° 0 mm 3 m/s 742 mmHg 73%
07:00 +25°C° 0 mm 4 m/s 742 mmHg 68%
08:00 +26°C° 0 mm 5 m/s 742 mmHg 63%
09:00 +28°C° 0 mm 5 m/s 742 mmHg 58%
10:00 +29°C° 0 mm 6 m/s 742 mmHg 52%
11:00 +30°C° 0 mm 6 m/s 742 mmHg 51%
12:00 +30°C° 0 mm 6 m/s 742 mmHg 49%
13:00 +32°C° 0 mm 6 m/s 741 mmHg 47%
14:00 +32°C° 0 mm 6 m/s 741 mmHg 48%
15:00 +32°C° 0 mm 6 m/s 741 mmHg 49%
16:00 +32°C° 0 mm 6 m/s 740 mmHg 49%
17:00 +29°C° 0 mm 5 m/s 741 mmHg 55%
18:00 +28°C° 0 mm 4 m/s 741 mmHg 60%
19:00 +27°C° 0 mm 3 m/s 741 mmHg 66%
20:00 +25°C° 0.1 mm 3 m/s 741 mmHg 70%
21:00 +24°C° 0.1 mm 2 m/s 741 mmHg 74%
22:00 +23°C° 0.1 mm 2 m/s 741 mmHg 78%
23:00 +21°C° 0.2 mm 2 m/s 741 mmHg 81%

Amanhã, 22 Junho, Terça-feira

Tempo Temperatura Precipitação Vento Pressão Humidade
00:00 +21°C° 0.2 mm 2 m/s 741 mmHg 84%
01:00 +20°C° 0.2 mm 2 m/s 741 mmHg 87%
02:00 +20°C° 0.3 mm 2 m/s 741 mmHg 90%
03:00 +19°C° 0.3 mm 2 m/s 741 mmHg 92%
04:00 +18°C° 0.3 mm 3 m/s 741 mmHg 95%
05:00 +19°C° 0.4 mm 3 m/s 742 mmHg 93%
06:00 +19°C° 0.4 mm 3 m/s 742 mmHg 90%
07:00 +19°C° 0.4 mm 4 m/s 743 mmHg 88%
08:00 +20°C° 0 mm 3 m/s 743 mmHg 81%
09:00 +22°C° 0 mm 3 m/s 743 mmHg 74%
10:00 +24°C° 0 mm 3 m/s 743 mmHg 67%
11:00 +25°C° 0 mm 3 m/s 743 mmHg 65%
12:00 +26°C° 0 mm 3 m/s 744 mmHg 62%
13:00 +26°C° 0 mm 3 m/s 744 mmHg 59%
14:00 +26°C° 0 mm 3 m/s 744 mmHg 60%
15:00 +25°C° 0 mm 4 m/s 744 mmHg 61%
16:00 +25°C° 0 mm 4 m/s 744 mmHg 62%
17:00 +22°C° 0 mm 4 m/s 744 mmHg 64%
18:00 +21°C° 0 mm 4 m/s 745 mmHg 66%
19:00 +20°C° 0 mm 4 m/s 745 mmHg 68%
20:00 +18°C° 0 mm 3 m/s 745 mmHg 70%
21:00 +16°C° 0 mm 3 m/s 746 mmHg 73%
22:00 +15°C° 0 mm 2 m/s 746 mmHg 76%
23:00 +15°C° 0 mm 2 m/s 746 mmHg 74%

Depois de amanhã, 23 Junho, Quarta-feira

Tempo Temperatura Precipitação Vento Pressão Humidade
00:00 +14°C° 0 mm 2 m/s 746 mmHg 73%
01:00 +14°C° 0 mm 2 m/s 746 mmHg 72%
02:00 +14°C° 0 mm 2 m/s 746 mmHg 72%
03:00 +14°C° 0 mm 2 m/s 746 mmHg 72%
04:00 +14°C° 0 mm 2 m/s 747 mmHg 72%
05:00 +15°C° 0 mm 2 m/s 747 mmHg 67%
06:00 +17°C° 0 mm 2 m/s 747 mmHg 62%
07:00 +19°C° 0 mm 2 m/s 747 mmHg 57%
08:00 +20°C° 0 mm 2 m/s 748 mmHg 55%
09:00 +21°C° 0 mm 2 m/s 748 mmHg 53%
10:00 +23°C° 0 mm 2 m/s 748 mmHg 50%
11:00 +24°C° 0 mm 2 m/s 748 mmHg 49%
12:00 +25°C° 0 mm 2 m/s 748 mmHg 49%
13:00 +26°C° 0 mm 2 m/s 748 mmHg 48%
14:00 +25°C° 0 mm 3 m/s 748 mmHg 50%
15:00 +25°C° 0 mm 3 m/s 748 mmHg 51%
16:00 +25°C° 0 mm 3 m/s 748 mmHg 52%
17:00 +24°C° 0 mm 3 m/s 748 mmHg 58%
18:00 +21°C° 0 mm 3 m/s 748 mmHg 64%
19:00 +20°C° 0 mm 2 m/s 748 mmHg 71%
20:00 +18°C° 0 mm 2 m/s 748 mmHg 74%
21:00 +17°C° 0 mm 2 m/s 748 mmHg 78%
22:00 +15°C° 0 mm 2 m/s 748 mmHg 82%
23:00 +15°C° 0.3 mm 1 m/s 748 mmHg 85%

24 Junho, Quinta-feira

Tempo Temperatura Precipitação Vento Pressão Humidade
00:00 +15°C° 0.3 mm 1 m/s 748 mmHg 87%
01:00 +15°C° 0.3 mm 1 m/s 749 mmHg 90%
02:00 +15°C° 0 mm 1 m/s 748 mmHg 88%
03:00 +15°C° 0 mm 1 m/s 748 mmHg 87%
04:00 +15°C° 0 mm 1 m/s 748 mmHg 86%
05:00 +16°C° 0 mm 1 m/s 748 mmHg 80%
06:00 +18°C° 0 mm 1 m/s 748 mmHg 75%
07:00 +20°C° 0 mm 1 m/s 748 mmHg 69%
08:00 +21°C° 0 mm 1 m/s 748 mmHg 63%
09:00 +22°C° 0 mm 1 m/s 749 mmHg 57%
10:00 +24°C° 0 mm 1 m/s 749 mmHg 51%
11:00 +24°C° 0 mm 1 m/s 748 mmHg 50%
12:00 +25°C° 0 mm 2 m/s 748 mmHg 49%
13:00 +26°C° 0 mm 2 m/s 748 mmHg 48%
14:00 +26°C° 0 mm 2 m/s 748 mmHg 49%
15:00 +26°C° 0 mm 2 m/s 748 mmHg 51%
16:00 +26°C° 0 mm 3 m/s 748 mmHg 52%
17:00 +24°C° 0 mm 3 m/s 748 mmHg 60%
18:00 +22°C° 0 mm 3 m/s 747 mmHg 68%
19:00 +20°C° 0 mm 3 m/s 747 mmHg 75%
20:00 +19°C° 0 mm 2 m/s 747 mmHg 81%
21:00 +17°C° 0 mm 2 m/s 747 mmHg 87%
22:00 +16°C° 0 mm 2 m/s 747 mmHg 93%
23:00 +16°C° 0 mm 2 m/s 747 mmHg 93%

25 Junho, Sexta-feira

Tempo Temperatura Precipitação Vento Pressão Humidade
00:00 +16°C° 0 mm 2 m/s 746 mmHg 93%
01:00 +16°C° 0 mm 2 m/s 746 mmHg 93%
02:00 +16°C° 0 mm 2 m/s 746 mmHg 94%
03:00 +16°C° 0 mm 2 m/s 746 mmHg 95%
04:00 +15°C° 0 mm 2 m/s 745 mmHg 96%
05:00 +16°C° 0 mm 2 m/s 745 mmHg 92%
06:00 +17°C° 0 mm 2 m/s 745 mmHg 88%
07:00 +18°C° 0 mm 2 m/s 745 mmHg 85%
08:00 +18°C° 0.4 mm 2 m/s 745 mmHg 85%
09:00 +18°C° 0.4 mm 2 m/s 745 mmHg 84%
10:00 +19°C° 0.4 mm 2 m/s 745 mmHg 84%
11:00 +19°C° 0.3 mm 3 m/s 745 mmHg 83%
12:00 +19°C° 0.3 mm 3 m/s 745 mmHg 81%
13:00 +20°C° 0.3 mm 3 m/s 745 mmHg 80%
14:00 +21°C° 0.1 mm 3 m/s 744 mmHg 76%
15:00 +21°C° 0.1 mm 3 m/s 744 mmHg 73%
16:00 +22°C° 0.1 mm 4 m/s 744 mmHg 69%
17:00 +21°C° 0.2 mm 3 m/s 744 mmHg 71%
18:00 +20°C° 0.2 mm 3 m/s 744 mmHg 73%
19:00 +19°C° 0.2 mm 3 m/s 744 mmHg 75%
20:00 +18°C° 0 mm 3 m/s 744 mmHg 77%
21:00 +16°C° 0 mm 3 m/s 744 mmHg 79%
22:00 +14°C° 0 mm 3 m/s 744 mmHg 81%
23:00 +13°C° 0 mm 3 m/s 744 mmHg 82%

26 Junho, Sábado

Tempo Temperatura Precipitação Vento Pressão Humidade
00:00 +13°C° 0 mm 3 m/s 744 mmHg 83%
01:00 +12°C° 0 mm 3 m/s 744 mmHg 84%
02:00 +12°C° 0 mm 3 m/s 744 mmHg 85%
03:00 +12°C° 0 mm 3 m/s 744 mmHg 86%
04:00 +12°C° 0 mm 3 m/s 744 mmHg 87%
05:00 +14°C° 0 mm 3 m/s 744 mmHg 79%
06:00 +17°C° 0 mm 3 m/s 744 mmHg 70%
07:00 +19°C° 0 mm 3 m/s 745 mmHg 61%
08:00 +20°C° 0 mm 3 m/s 745 mmHg 57%
09:00 +21°C° 0 mm 2 m/s 745 mmHg 53%
10:00 +23°C° 0 mm 2 m/s 745 mmHg 49%
11:00 +24°C° 0 mm 3 m/s 745 mmHg 47%
12:00 +25°C° 0 mm 4 m/s 744 mmHg 44%
13:00 +26°C° 0 mm 4 m/s 744 mmHg 42%
14:00 +25°C° 0 mm 4 m/s 745 mmHg 44%
15:00 +25°C° 0 mm 4 m/s 745 mmHg 46%
16:00 +23°C° 0 mm 5 m/s 745 mmHg 48%
17:00 +22°C° 0 mm 4 m/s 745 mmHg 54%
18:00 +20°C° 0 mm 3 m/s 745 mmHg 60%
19:00 +19°C° 0 mm 3 m/s 745 mmHg 65%
20:00 +18°C° 0 mm 2 m/s 745 mmHg 70%
21:00 +16°C° 0 mm 2 m/s 746 mmHg 75%
22:00 +15°C° 0 mm 2 m/s 746 mmHg 79%
23:00 +14°C° 0 mm 2 m/s 746 mmHg 82%
Mostrar mais

Necessitamos do seu Consentimento

A Meteoprog e os seus Fornecedores de Serviços podem armazenar e aceder a dados pessoais como cookies, identificadores do dispositivo ou outras tecnologias semelhantes existentes no seu dispositivo e processar estes dados para personalizar conteúdos e anúncios, assim como funcionalidades nas redes sociais e análise de tráfego.

  • Armazenar e/ou aceder a informações no seu dispositivo

    Os cookies, identificadores do dispositivo ou outras informações podem ser armazenados ou acedidos no seu dispositivo, para os fins acima indicados.

  • Anúncios e conteúdos personalizados, medição de anúncios e conteúdos, dados sobre o público-alvo e desenvolvimento de produtos

    Os anúncios e os conteúdos podem ser personalizados com base num perfil. Podem ser adicionados dados adicionais para uma maior personalização dos anúncios e dos conteúdos. A eficácia dos anúncios e dos conteúdos pode ser medida. Podem ser obtidas informações sobre o público que visualizou os anúncios e os conteúdos. Estes dados podem ser usados para desenvolver ou melhorar sistemas, softwares ou a experiência do utilizador.

Ao clicar em "Eu concordo”, permitirá o uso de cookies, identificadores do dispositivo e web beacons mencionados ou outras tecnologias semelhantes. As configurações do navegador do seu dispositivo podem ser alteradas.

Para certos fins, podem ser invocados interesses legítimos ao invés de consentimento. Pode ler mais informação sobre este assunto na nossa Política de Privacidade e Cookies.